Location: Ústí nad Labem
(50.6611°N, 14.0531°E)
Time: 17:20:37
(UTC+02:00)

S-56A Canister/Altair - Pass Details

Date: 03 May 2025
Orbit: 633 x 2485 km, 38.9° (Epoch: 12 May)

Event Time Altitude Azimuth Distance (km) Brightness Sun altitude
Rises 00:09:56 0° 260° (W) 3,466 10.9 -22.7°
Reaches altitude 10° 00:12:41 10° 246° (WSW) 2,738 10.2 -22.8°
Enters shadow 00:14:56 18° 227° (SW) 2,362 9.7 -22.9°
